カタログに戻る

FENGYUN 1C DEB

運用中SSO
NORAD 31082·DEBRIS·🇨🇳 China

打ち上げ May 10, 1999 から Taiyuan Satellite Launch Center

Loading…

次のパス (今後24時間)

TLE

経年Source: Space-Track

元期: Sep 4, 2026, 06:13 UTC

1 31082U 99025BGC 26247.25935584  .00000617  00000-0  33985-3 0  9996
2 31082  98.6758 251.7211 0068781 161.6520 198.7158 14.13920565    15

AllMySatでFENGYUN 1C DEBをリアルタイム追跡

Download on the App Store